Time,TemperatureF,DewpointF,PressureIn,WindDirection,WindDirectionDegrees,WindSpeedMPH,WindSpeedGustMPH,Humidity,HourlyPrecipIn,Conditions,Clouds,dailyrainin,SoftwareType,DateUTC
2013-05-15 00:01:00,70.5,45.7,29.65,West,273,4.0,9.0,41,0.00,,---,0.00,VWS V14.01,2013-05-15 05:01:00,
2013-05-15 00:06:00,70.4,45.6,29.66,WNW,282,2.0,9.0,41,0.00,,---,0.00,VWS V14.01,2013-05-15 05:06:00,
2013-05-15 00:11:00,70.2,46.1,29.66,North,7,5.0,9.0,42,0.00,,---,0.00,VWS V14.01,2013-05-15 05:11:00,
2013-05-15 00:16:00,70.0,45.9,29.66,West,265,2.0,8.0,42,0.00,,---,0.00,VWS V14.01,2013-05-15 05:16:00,
2013-05-15 00:21:00,69.7,46.2,29.66,NNW,341,2.0,8.0,43,0.00,,---,0.00,VWS V14.01,2013-05-15 05:21:00,
2013-05-15 00:26:00,69.3,45.9,29.66,NW,304,2.0,8.0,43,0.00,,---,0.00,VWS V14.01,2013-05-15 05:26:00,
2013-05-15 00:31:00,69.0,46.2,29.67,NW,326,1.0,5.0,44,0.00,,---,0.00,VWS V14.01,2013-05-15 05:31:00,
2013-05-15 00:36:00,68.7,45.9,29.67,NNW,333,3.0,7.0,44,0.00,,---,0.00,VWS V14.01,2013-05-15 05:36:00,
2013-05-15 00:41:00,68.5,46.3,29.68,NW,311,2.0,7.0,45,0.00,,---,0.00,VWS V14.01,2013-05-15 05:41:00,
2013-05-15 00:46:00,68.3,46.2,29.68,NW,305,2.0,5.0,45,0.00,,---,0.00,VWS V14.01,2013-05-15 05:46:00,
2013-05-15 00:51:00,68.0,46.5,29.68,NNW,328,3.0,6.0,46,0.00,,---,0.00,VWS V14.01,2013-05-15 05:51:00,
2013-05-15 00:56:00,67.8,46.3,29.69,WNW,296,3.0,6.0,46,0.00,,---,0.00,VWS V14.01,2013-05-15 05:56:00,
2013-05-15 01:01:00,67.7,46.2,29.69,North,1,3.0,7.0,46,0.00,,---,0.00,VWS V14.01,2013-05-15 06:01:00,
2013-05-15 01:06:00,67.5,46.6,29.69,WNW,288,1.0,8.0,47,0.00,,---,0.00,VWS V14.01,2013-05-15 06:06:00,
2013-05-15 01:11:00,67.3,47.0,29.70,NW,323,5.0,8.0,48,0.00,,---,0.00,VWS V14.01,2013-05-15 06:11:00,
2013-05-15 01:16:00,67.2,46.9,29.70,North,2,2.0,7.0,48,0.00,,---,0.00,VWS V14.01,2013-05-15 06:16:00,
2013-05-15 01:21:00,66.9,46.6,29.70,NNW,348,3.0,9.0,48,0.00,,---,0.00,VWS V14.01,2013-05-15 06:21:00,
2013-05-15 01:26:00,66.7,47.0,29.70,NNW,329,2.0,10.0,49,0.00,,---,0.00,VWS V14.01,2013-05-15 06:26:00,
2013-05-15 01:31:00,66.5,47.3,29.70,WNW,287,3.0,8.0,50,0.00,,---,0.00,VWS V14.01,2013-05-15 06:31:00,
2013-05-15 01:36:00,66.2,47.0,29.71,WNW,286,4.0,9.0,50,0.00,,---,0.00,VWS V14.01,2013-05-15 06:36:00,
2013-05-15 01:41:00,66.0,47.4,29.71,NW,313,4.0,9.0,51,0.00,,---,0.00,VWS V14.01,2013-05-15 06:41:00,
2013-05-15 01:46:00,65.8,47.2,29.71,NW,315,8.0,9.0,51,0.00,,---,0.00,VWS V14.01,2013-05-15 06:46:00,
2013-05-15 01:51:00,65.5,47.4,29.72,West,260,3.0,12.0,52,0.00,,---,0.00,VWS V14.01,2013-05-15 06:51:00,
2013-05-15 01:56:00,65.3,47.2,29.72,NE,50,3.0,12.0,52,0.00,,---,0.00,VWS V14.01,2013-05-15 06:56:00,
2013-05-15 02:01:00,65.1,47.6,29.72,WNW,287,4.0,6.0,53,0.00,,---,0.00,VWS V14.01,2013-05-15 07:01:00,
2013-05-15 02:06:00,64.7,47.2,29.72,NNW,343,2.0,7.0,53,0.00,,---,0.00,VWS V14.01,2013-05-15 07:06:00,
2013-05-15 02:11:00,64.4,46.9,29.73,NW,312,2.0,9.0,53,0.00,,---,0.00,VWS V14.01,2013-05-15 07:11:00,
2013-05-15 02:16:00,64.2,47.2,29.73,West,264,2.0,7.0,54,0.00,,---,0.00,VWS V14.01,2013-05-15 07:16:00,
2013-05-15 02:21:00,64.0,47.0,29.73,WNW,288,3.0,8.0,54,0.00,,---,0.00,VWS V14.01,2013-05-15 07:21:00,
2013-05-15 02:26:00,63.7,46.8,29.74,NW,321,3.0,8.0,54,0.00,,---,0.00,VWS V14.01,2013-05-15 07:26:00,
2013-05-15 02:31:00,63.4,46.5,29.74,NNW,335,2.0,5.0,54,0.00,,---,0.00,VWS V14.01,2013-05-15 07:31:00,
2013-05-15 02:36:00,63.1,46.7,29.74,North,2,2.0,7.0,55,0.00,,---,0.00,VWS V14.01,2013-05-15 07:36:00,
2013-05-15 02:41:00,62.9,46.5,29.74,SW,232,2.0,7.0,55,0.00,,---,0.00,VWS V14.01,2013-05-15 07:41:00,
2013-05-15 02:46:00,62.7,46.3,29.74,NW,318,1.0,7.0,55,0.00,,---,0.00,VWS V14.01,2013-05-15 07:46:00,
2013-05-15 02:51:00,62.6,46.2,29.74,West,276,5.0,8.0,55,0.00,,---,0.00,VWS V14.01,2013-05-15 07:51:00,
2013-05-15 02:56:00,62.4,46.0,29.75,NW,318,1.0,9.0,55,0.00,,---,0.00,VWS V14.01,2013-05-15 07:56:00,
2013-05-15 03:01:00,62.2,45.8,29.75,North,10,2.0,5.0,55,0.00,,---,0.00,VWS V14.01,2013-05-15 08:01:00,
2013-05-15 03:06:00,62.1,45.8,29.75,NW,322,4.0,7.0,55,0.00,,---,0.00,VWS V14.01,2013-05-15 08:06:00,
2013-05-15 03:11:00,61.9,45.6,29.75,NNW,346,1.0,8.0,55,0.00,,---,0.00,VWS V14.01,2013-05-15 08:11:00,
2013-05-15 03:16:00,61.6,45.3,29.76,NW,318,1.0,4.0,55,0.00,,---,0.00,VWS V14.01,2013-05-15 08:16:00,
2013-05-15 03:21:00,61.4,45.6,29.76,NW,325,2.0,6.0,56,0.00,,---,0.00,VWS V14.01,2013-05-15 08:21:00,
2013-05-15 03:26:00,61.2,45.4,29.76,NNW,341,1.0,6.0,56,0.00,,---,0.00,VWS V14.01,2013-05-15 08:26:00,
2013-05-15 03:31:00,61.1,45.3,29.76,NNW,344,1.0,7.0,56,0.00,,---,0.00,VWS V14.01,2013-05-15 08:31:00,
2013-05-15 03:36:00,61.0,45.7,29.76,NW,309,3.0,7.0,57,0.00,,---,0.00,VWS V14.01,2013-05-15 08:36:00,
2013-05-15 03:41:00,60.8,45.5,29.77,NNW,338,2.0,7.0,57,0.00,,---,0.00,VWS V14.01,2013-05-15 08:41:00,
2013-05-15 03:46:00,60.7,45.4,29.77,NW,306,0.0,5.0,57,0.00,,---,0.00,VWS V14.01,2013-05-15 08:46:00,
2013-05-15 03:51:00,60.6,45.3,29.77,WNW,301,3.0,5.0,57,0.00,,---,0.00,VWS V14.01,2013-05-15 08:51:00,
2013-05-15 03:56:00,60.4,45.6,29.77,WNW,284,3.0,5.0,58,0.00,,---,0.00,VWS V14.01,2013-05-15 08:56:00,
2013-05-15 04:01:00,60.2,45.4,29.78,NNW,342,1.0,7.0,58,0.00,,---,0.00,VWS V14.01,2013-05-15 09:01:00,
2013-05-15 04:06:00,59.9,45.1,29.78,NW,305,2.0,7.0,58,0.00,,---,0.00,VWS V14.01,2013-05-15 09:06:00,
2013-05-15 04:11:00,59.8,45.5,29.78,NNE,13,0.0,7.0,59,0.00,,---,0.00,VWS V14.01,2013-05-15 09:11:00,
2013-05-15 04:16:00,59.7,45.4,29.78,NW,320,2.0,4.0,59,0.00,,---,0.00,VWS V14.01,2013-05-15 09:16:00,
2013-05-15 04:21:00,59.5,45.2,29.78,NNW,335,0.0,4.0,59,0.00,,---,0.00,VWS V14.01,2013-05-15 09:21:00,
2013-05-15 04:26:00,59.3,45.0,29.78,NNW,327,1.0,4.0,59,0.00,,---,0.00,VWS V14.01,2013-05-15 09:26:00,
2013-05-15 04:31:00,59.2,45.3,29.78,NW,307,1.0,3.0,60,0.00,,---,0.00,VWS V14.01,2013-05-15 09:31:00,
2013-05-15 04:36:00,58.9,45.1,29.79,WNW,303,2.0,3.0,60,0.00,,---,0.00,VWS V14.01,2013-05-15 09:36:00,
2013-05-15 04:41:00,58.7,45.3,29.79,NNW,329,1.0,3.0,61,0.00,,---,0.00,VWS V14.01,2013-05-15 09:41:00,
2013-05-15 04:46:00,58.5,45.1,29.79,NNW,332,0.0,2.0,61,0.00,,---,0.00,VWS V14.01,2013-05-15 09:46:00,
2013-05-15 04:51:00,58.1,45.2,29.80,WNW,296,0.0,2.0,62,0.00,,---,0.00,VWS V14.01,2013-05-15 09:51:00,
2013-05-15 04:56:00,57.8,44.9,29.80,WNW,296,0.0,2.0,62,0.00,,---,0.00,VWS V14.01,2013-05-15 09:56:00,
2013-05-15 05:01:00,57.4,44.9,29.80,NNW,338,0.0,1.0,63,0.00,,---,0.00,VWS V14.01,2013-05-15 10:01:00,
2013-05-15 05:06:00,57.2,45.2,29.80,WNW,302,0.0,2.0,64,0.00,,---,0.00,VWS V14.01,2013-05-15 10:06:00,
2013-05-15 05:11:00,56.9,44.9,29.80,WNW,303,0.0,2.0,64,0.00,,---,0.00,VWS V14.01,2013-05-15 10:11:00,
2013-05-15 05:16:00,56.5,44.9,29.81,WNW,300,1.0,1.0,65,0.00,,---,0.00,VWS V14.01,2013-05-15 10:16:00,
2013-05-15 05:21:00,56.4,44.8,29.81,WNW,287,0.0,2.0,65,0.00,,---,0.00,VWS V14.01,2013-05-15 10:21:00,
2013-05-15 05:26:00,56.1,44.9,29.82,WNW,288,0.0,2.0,66,0.00,,---,0.00,VWS V14.01,2013-05-15 10:26:00,
2013-05-15 05:31:00,55.8,44.6,29.82,WNW,287,0.0,1.0,66,0.00,,---,0.00,VWS V14.01,2013-05-15 10:31:00,
2013-05-15 05:36:00,55.5,44.7,29.82,WNW,287,0.0,1.0,67,0.00,,---,0.00,VWS V14.01,2013-05-15 10:36:00,
2013-05-15 05:41:00,55.0,44.7,29.82,WNW,287,0.0,1.0,68,0.00,,---,0.00,VWS V14.01,2013-05-15 10:41:00,
2013-05-15 05:46:00,54.6,44.7,29.82,WNW,287,0.0,1.0,69,0.00,,---,0.00,VWS V14.01,2013-05-15 10:46:00,
2013-05-15 05:51:00,54.4,44.8,29.83,WNW,287,0.0,2.0,70,0.00,,---,0.00,VWS V14.01,2013-05-15 10:51:00,
2013-05-15 05:56:00,54.3,44.7,29.83,WNW,287,0.0,2.0,70,0.00,,---,0.00,VWS V14.01,2013-05-15 10:56:00,
2013-05-15 06:01:00,54.2,45.0,29.83,WNW,288,0.0,0.0,71,0.00,,---,0.00,VWS V14.01,2013-05-15 11:01:00,
2013-05-15 06:06:00,54.1,44.9,29.84,WNW,287,1.0,1.0,71,0.00,,---,0.00,VWS V14.01,2013-05-15 11:06:00,
2013-05-15 06:11:00,54.1,45.3,29.85,WNW,294,0.0,2.0,72,0.00,,---,0.00,VWS V14.01,2013-05-15 11:11:00,
2013-05-15 06:16:00,54.3,45.1,29.85,WNW,300,0.0,2.0,71,0.00,,---,0.00,VWS V14.01,2013-05-15 11:16:00,
2013-05-15 06:21:00,54.4,45.2,29.85,WNW,300,0.0,2.0,71,0.00,,---,0.00,VWS V14.01,2013-05-15 11:21:00,
2013-05-15 06:26:00,54.5,45.3,29.86,WNW,300,0.0,2.0,71,0.00,,---,0.00,VWS V14.01,2013-05-15 11:26:00,
2013-05-15 06:31:00,54.7,45.5,29.86,West,270,0.0,4.0,71,0.00,,---,0.00,VWS V14.01,2013-05-15 11:31:00,
2013-05-15 06:36:00,54.9,45.7,29.87,WNW,293,1.0,4.0,71,0.00,,---,0.00,VWS V14.01,2013-05-15 11:36:00,
2013-05-15 06:41:00,55.0,45.8,29.87,West,273,3.0,5.0,71,0.00,,---,0.00,VWS V14.01,2013-05-15 11:41:00,
2013-05-15 06:46:00,55.3,45.7,29.87,WNW,282,1.0,4.0,70,0.00,,---,0.00,VWS V14.01,2013-05-15 11:46:00,
2013-05-15 06:51:00,55.7,46.1,29.87,WNW,285,1.0,4.0,70,0.00,,---,0.00,VWS V14.01,2013-05-15 11:51:00,
2013-05-15 06:56:00,55.9,46.3,29.87,WNW,285,0.0,4.0,70,0.00,,---,0.00,VWS V14.01,2013-05-15 11:56:00,
2013-05-15 07:02:00,56.1,46.1,29.87,WNW,296,0.0,1.0,69,0.00,,---,0.00,VWS V14.01,2013-05-15 12:02:00,
2013-05-15 07:07:00,56.5,46.5,29.88,WNW,293,0.0,2.0,69,0.00,,---,0.00,VWS V14.01,2013-05-15 12:07:00,
2013-05-15 07:12:00,57.0,46.6,29.88,SW,233,4.0,4.0,68,0.00,,---,0.00,VWS V14.01,2013-05-15 12:12:00,
2013-05-15 07:17:00,57.5,46.6,29.88,WSW,254,0.0,4.0,67,0.00,,---,0.00,VWS V14.01,2013-05-15 12:17:00,
2013-05-15 07:22:00,58.0,46.7,29.89,West,277,1.0,4.0,66,0.00,,---,0.00,VWS V14.01,2013-05-15 12:22:00,
2013-05-15 07:27:00,58.5,46.8,29.90,WNW,301,2.0,2.0,65,0.00,,---,0.00,VWS V14.01,2013-05-15 12:27:00,
2013-05-15 07:32:00,58.9,46.8,29.90,NW,321,3.0,5.0,64,0.00,,---,0.00,VWS V14.01,2013-05-15 12:32:00,
2013-05-15 07:37:00,59.3,47.1,29.90,West,263,2.0,5.0,64,0.00,,---,0.00,VWS V14.01,2013-05-15 12:37:00,
2013-05-15 07:42:00,59.6,47.4,29.90,WNW,282,1.0,1.0,64,0.00,,---,0.00,VWS V14.01,2013-05-15 12:42:00,
2013-05-15 07:47:00,60.0,47.4,29.90,West,267,3.0,3.0,63,0.00,,---,0.00,VWS V14.01,2013-05-15 12:47:00,
2013-05-15 07:52:00,60.4,47.3,29.90,WNW,293,1.0,5.0,62,0.00,,---,0.00,VWS V14.01,2013-05-15 12:52:00,
2013-05-15 07:57:00,60.7,47.2,29.90,WNW,287,1.0,2.0,61,0.00,,---,0.00,VWS V14.01,2013-05-15 12:57:00,
2013-05-15 08:02:00,61.1,47.6,29.90,West,263,2.0,2.0,61,0.00,,---,0.00,VWS V14.01,2013-05-15 13:02:00,
2013-05-15 08:07:00,61.4,47.4,29.90,NW,318,0.0,5.0,60,0.00,,---,0.00,VWS V14.01,2013-05-15 13:07:00,
2013-05-15 08:13:00,61.9,47.9,29.90,NW,309,1.0,4.0,60,0.00,,---,0.00,VWS V14.01,2013-05-15 13:13:00,
2013-05-15 08:18:00,62.7,47.7,29.90,WNW,300,2.0,4.0,58,0.00,,---,0.00,VWS V14.01,2013-05-15 13:18:00,
2013-05-15 08:23:00,63.2,48.2,29.90,West,267,1.0,4.0,58,0.00,,---,0.00,VWS V14.01,2013-05-15 13:23:00,
2013-05-15 08:28:00,63.7,47.7,29.90,WNW,287,0.0,2.0,56,0.00,,---,0.00,VWS V14.01,2013-05-15 13:28:00,
2013-05-15 08:33:00,63.9,47.4,29.90,NW,312,1.0,2.0,55,0.00,,---,0.00,VWS V14.01,2013-05-15 13:33:00,
2013-05-15 08:38:00,63.8,47.3,29.89,North,356,0.0,3.0,55,0.00,,---,0.00,VWS V14.01,2013-05-15 13:38:00,
2013-05-15 08:43:00,63.7,47.2,29.89,North,357,0.0,0.0,55,0.00,,---,0.00,VWS V14.01,2013-05-15 13:43:00,
2013-05-15 08:48:00,63.7,47.2,29.89,North,357,0.0,1.0,55,0.00,,---,0.00,VWS V14.01,2013-05-15 13:48:00,
2013-05-15 08:54:00,63.9,47.9,29.90,NW,313,0.0,1.0,56,0.00,,---,0.00,VWS V14.01,2013-05-15 13:54:00,
2013-05-15 08:59:00,63.9,47.4,29.90,NW,313,0.0,1.0,55,0.00,,---,0.00,VWS V14.01,2013-05-15 13:59:00,
2013-05-15 09:04:00,63.9,47.4,29.90,NW,313,0.0,1.0,55,0.00,,---,0.00,VWS V14.01,2013-05-15 14:04:00,
2013-05-15 09:09:00,63.9,47.0,29.90,NW,313,1.0,1.0,54,0.00,,---,0.00,VWS V14.01,2013-05-15 14:09:00,
2013-05-15 09:14:00,63.9,47.4,29.89,NW,315,0.0,1.0,55,0.00,,---,0.00,VWS V14.01,2013-05-15 14:14:00,
2013-05-15 09:19:00,63.9,47.0,29.89,NW,313,0.0,2.0,54,0.00,,---,0.00,VWS V14.01,2013-05-15 14:19:00,
2013-05-15 09:24:00,63.9,46.5,29.89,WNW,303,0.0,2.0,53,0.00,,---,0.00,VWS V14.01,2013-05-15 14:24:00,
2013-05-15 09:29:00,63.8,46.4,29.89,NNW,329,0.0,0.0,53,0.00,,---,0.00,VWS V14.01,2013-05-15 14:29:00,
2013-05-15 09:34:00,63.7,46.3,29.88,NNW,328,0.0,0.0,53,0.00,,---,0.00,VWS V14.01,2013-05-15 14:34:00,
2013-05-15 09:39:00,63.5,47.1,29.88,NNW,329,0.0,0.0,55,0.00,,---,0.00,VWS V14.01,2013-05-15 14:39:00,
2013-05-15 09:44:00,63.2,46.3,29.88,NNW,346,2.0,2.0,54,0.00,,---,0.00,VWS V14.01,2013-05-15 14:44:00,
2013-05-15 09:50:00,63.0,46.1,29.88,NW,316,0.0,5.0,54,0.00,,---,0.00,VWS V14.01,2013-05-15 14:50:00,
2013-05-15 09:55:00,63.0,46.6,29.88,NW,315,0.0,5.0,55,0.00,,---,0.00,VWS V14.01,2013-05-15 14:55:00,
2013-05-15 10:00:00,63.0,46.1,29.87,North,10,1.0,4.0,54,0.00,,---,0.00,VWS V14.01,2013-05-15 15:00:00,
2013-05-15 10:05:00,63.0,46.1,29.86,NNW,345,0.0,4.0,54,0.00,,---,0.00,VWS V14.01,2013-05-15 15:05:00,
2013-05-15 10:10:00,63.0,47.1,29.87,NNW,345,0.0,4.0,56,0.00,,---,0.00,VWS V14.01,2013-05-15 15:10:00,
2013-05-15 10:15:00,63.1,47.2,29.87,NNW,345,0.0,0.0,56,0.00,,---,0.00,VWS V14.01,2013-05-15 15:15:00,
2013-05-15 10:20:00,63.2,47.7,29.87,NNW,345,0.0,0.0,57,0.00,,---,0.00,VWS V14.01,2013-05-15 15:20:00,
2013-05-15 10:25:00,63.2,47.3,29.88,NNW,345,0.0,0.0,56,0.00,,---,0.00,VWS V14.01,2013-05-15 15:25:00,
2013-05-15 10:30:00,63.4,47.9,29.87,NNW,345,0.0,0.0,57,0.00,,---,0.00,VWS V14.01,2013-05-15 15:30:00,
2013-05-15 10:35:00,63.6,48.1,29.87,NNW,345,0.0,1.0,57,0.00,,---,0.00,VWS V14.01,2013-05-15 15:35:00,
2013-05-15 10:40:00,63.7,47.7,29.87,NNW,345,0.0,1.0,56,0.00,,---,0.00,VWS V14.01,2013-05-15 15:40:00,
2013-05-15 10:46:00,63.7,48.2,29.88,NNW,345,0.0,1.0,57,0.00,,---,0.00,VWS V14.01,2013-05-15 15:46:00,
2013-05-15 10:51:00,64.1,48.1,29.89,WSW,243,1.0,2.0,56,0.00,,---,0.00,VWS V14.01,2013-05-15 15:51:00,
2013-05-15 10:56:00,64.4,48.4,29.89,WSW,242,0.0,2.0,56,0.00,,---,0.00,VWS V14.01,2013-05-15 15:56:00,
2013-05-15 11:01:00,64.7,48.7,29.89,WSW,243,1.0,3.0,56,0.00,,---,0.00,VWS V14.01,2013-05-15 16:01:00,
2013-05-15 11:06:00,64.7,47.7,29.89,ESE,110,2.0,3.0,54,0.00,,---,0.00,VWS V14.01,2013-05-15 16:06:00,
2013-05-15 11:11:00,64.6,48.6,29.89,SSE,163,2.0,3.0,56,0.00,,---,0.00,VWS V14.01,2013-05-15 16:11:00,
2013-05-15 11:16:00,64.6,48.6,29.89,East,90,1.0,2.0,56,0.00,,---,0.00,VWS V14.01,2013-05-15 16:16:00,
2013-05-15 11:21:00,64.6,48.6,29.89,SE,131,0.0,3.0,56,0.00,,---,0.00,VWS V14.01,2013-05-15 16:21:00,
2013-05-15 11:27:00,64.6,48.1,29.89,SSW,213,2.0,2.0,55,0.00,,---,0.00,VWS V14.01,2013-05-15 16:27:00,
2013-05-15 11:32:00,64.8,47.8,29.89,East,79,0.0,2.0,54,0.00,,---,0.00,VWS V14.01,2013-05-15 16:32:00,
2013-05-15 11:37:00,65.2,48.6,29.89,West,278,0.0,2.0,55,0.00,,---,0.00,VWS V14.01,2013-05-15 16:37:00,
2013-05-15 11:42:00,65.8,46.7,29.89,WNW,292,1.0,1.0,50,0.00,,---,0.00,VWS V14.01,2013-05-15 16:42:00,
2013-05-15 11:47:00,66.3,47.1,29.90,NW,314,1.0,3.0,50,0.00,,---,0.00,VWS V14.01,2013-05-15 16:47:00,
2013-05-15 11:52:00,66.6,47.9,29.90,SSW,201,1.0,6.0,51,0.00,,---,0.00,VWS V14.01,2013-05-15 16:52:00,
2013-05-15 11:57:00,66.8,48.6,29.90,West,262,2.0,2.0,52,0.00,,---,0.00,VWS V14.01,2013-05-15 16:57:00,
2013-05-15 12:02:00,67.5,47.1,29.89,South,188,8.0,8.0,48,0.00,,---,0.00,VWS V14.01,2013-05-15 17:02:00,
2013-05-15 12:07:00,68.5,48.6,29.89,West,281,2.0,8.0,49,0.00,,---,0.00,VWS V14.01,2013-05-15 17:07:00,
2013-05-15 12:12:00,69.9,49.3,29.89,West,266,2.0,4.0,48,0.00,,---,0.00,VWS V14.01,2013-05-15 17:12:00,
2013-05-15 12:17:00,70.1,49.5,29.89,West,260,2.0,6.0,48,0.00,,---,0.00,VWS V14.01,2013-05-15 17:17:00,
2013-05-15 12:22:00,69.6,49.6,29.89,West,278,3.0,6.0,49,0.00,,---,0.00,VWS V14.01,2013-05-15 17:22:00,
2013-05-15 12:27:00,69.2,49.2,29.89,West,269,1.0,3.0,49,0.00,,---,0.00,VWS V14.01,2013-05-15 17:27:00,
2013-05-15 12:32:00,68.9,49.5,29.89,West,268,2.0,8.0,50,0.00,,---,0.00,VWS V14.01,2013-05-15 17:32:00,
2013-05-15 12:37:00,69.0,49.6,29.89,SSE,148,4.0,8.0,50,0.00,,---,0.00,VWS V14.01,2013-05-15 17:37:00,
2013-05-15 12:42:00,69.2,49.2,29.89,SSW,201,2.0,6.0,49,0.00,,---,0.00,VWS V14.01,2013-05-15 17:42:00,
2013-05-15 12:47:00,69.6,49.6,29.88,WSW,241,8.0,9.0,49,0.00,,---,0.00,VWS V14.01,2013-05-15 17:47:00,
2013-05-15 12:52:00,69.7,48.6,29.88,ESE,104,4.0,9.0,47,0.00,,---,0.00,VWS V14.01,2013-05-15 17:52:00,
2013-05-15 12:57:00,70.3,49.7,29.88,West,261,1.0,3.0,48,0.00,,---,0.00,VWS V14.01,2013-05-15 17:57:00,
2013-05-15 13:02:00,71.3,49.5,29.88,SE,131,3.0,6.0,46,0.00,,---,0.00,VWS V14.01,2013-05-15 18:02:00,
2013-05-15 13:07:00,71.8,48.7,29.87,South,177,4.0,6.0,44,0.00,,---,0.00,VWS V14.01,2013-05-15 18:07:00,
2013-05-15 13:13:00,72.2,49.1,29.87,SE,146,4.0,4.0,44,0.00,,---,0.00,VWS V14.01,2013-05-15 18:13:00,
2013-05-15 13:18:00,72.0,48.3,29.87,WSW,249,3.0,7.0,43,0.00,,---,0.00,VWS V14.01,2013-05-15 18:18:00,
2013-05-15 13:23:00,71.8,48.7,29.87,SW,233,2.0,7.0,44,0.00,,---,0.00,VWS V14.01,2013-05-15 18:23:00,
2013-05-15 13:28:00,72.6,48.8,29.87,NW,312,3.0,5.0,43,0.00,,---,0.00,VWS V14.01,2013-05-15 18:28:00,
2013-05-15 13:33:00,73.0,49.2,29.87,WSW,255,1.0,6.0,43,0.00,,---,0.00,VWS V14.01,2013-05-15 18:33:00,
2013-05-15 13:38:00,73.6,49.1,29.87,SSW,211,3.0,7.0,42,0.00,,---,0.00,VWS V14.01,2013-05-15 18:38:00,
2013-05-15 13:43:00,73.6,48.5,29.87,SSW,195,7.0,9.0,41,0.00,,---,0.00,VWS V14.01,2013-05-15 18:43:00,
2013-05-15 13:48:00,73.4,47.0,29.87,South,185,4.0,9.0,39,0.00,,---,0.00,VWS V14.01,2013-05-15 18:48:00,
2013-05-15 13:53:00,73.3,46.9,29.87,SSW,208,2.0,9.0,39,0.00,,---,0.00,VWS V14.01,2013-05-15 18:53:00,
2013-05-15 13:58:00,73.5,47.0,29.86,South,190,4.0,7.0,39,0.00,,---,0.00,VWS V14.01,2013-05-15 18:58:00,
2013-05-15 14:03:00,73.8,47.3,29.86,WSW,240,2.0,7.0,39,0.00,,---,0.00,VWS V14.01,2013-05-15 19:03:00,
2013-05-15 14:08:00,74.0,47.5,29.86,SSW,211,8.0,8.0,39,0.00,,---,0.00,VWS V14.01,2013-05-15 19:08:00,
2013-05-15 14:13:00,74.3,47.1,29.86,West,265,3.0,12.0,38,0.00,,---,0.00,VWS V14.01,2013-05-15 19:13:00,
2013-05-15 14:18:00,74.4,47.9,29.86,South,188,4.0,12.0,39,0.00,,---,0.00,VWS V14.01,2013-05-15 19:18:00,
2013-05-15 14:23:00,74.6,48.0,29.86,West,262,1.0,12.0,39,0.00,,---,0.00,VWS V14.01,2013-05-15 19:23:00,
2013-05-15 14:28:00,75.4,50.1,29.86,WSW,241,1.0,5.0,41,0.00,,---,0.00,VWS V14.01,2013-05-15 19:28:00,
2013-05-15 14:34:00,75.7,47.6,29.85,SW,218,1.0,6.0,37,0.00,,---,0.00,VWS V14.01,2013-05-15 19:34:00,
2013-05-15 14:38:00,75.9,47.8,29.85,West,266,2.0,7.0,37,0.00,,---,0.00,VWS V14.01,2013-05-15 19:38:00,
2013-05-15 14:43:00,76.3,48.8,29.85,SW,234,2.0,6.0,38,0.00,,---,0.00,VWS V14.01,2013-05-15 19:43:00,
2013-05-15 14:48:00,76.4,48.9,29.84,NW,311,2.0,7.0,38,0.00,,---,0.00,VWS V14.01,2013-05-15 19:48:00,
2013-05-15 14:54:00,76.8,48.6,29.84,NW,305,1.0,7.0,37,0.00,,---,0.00,VWS V14.01,2013-05-15 19:54:00,
2013-05-15 14:59:00,77.1,47.4,29.84,WSW,246,3.0,6.0,35,0.00,,---,0.00,VWS V14.01,2013-05-15 19:59:00,
2013-05-15 15:04:00,76.8,47.1,29.84,West,276,1.0,6.0,35,0.00,,---,0.00,VWS V14.01,2013-05-15 20:04:00,
2013-05-15 15:09:00,77.1,46.6,29.84,SSW,204,2.0,9.0,34,0.00,,---,0.00,VWS V14.01,2013-05-15 20:09:00,
2013-05-15 15:14:00,77.0,46.5,29.84,West,266,3.0,6.0,34,0.00,,---,0.00,VWS V14.01,2013-05-15 20:14:00,
2013-05-15 15:19:00,77.7,47.9,29.84,WSW,243,2.0,6.0,35,0.00,,---,0.00,VWS V14.01,2013-05-15 20:19:00,
2013-05-15 15:24:00,77.8,47.2,29.84,West,280,2.0,7.0,34,0.00,,---,0.00,VWS V14.01,2013-05-15 20:24:00,
2013-05-15 15:29:00,77.9,45.7,29.84,NW,310,3.0,5.0,32,0.00,,---,0.00,VWS V14.01,2013-05-15 20:29:00,
2013-05-15 15:34:00,77.9,45.7,29.83,West,277,1.0,10.0,32,0.00,,---,0.00,VWS V14.01,2013-05-15 20:34:00,
2013-05-15 15:39:00,78.1,46.7,29.83,West,267,2.0,10.0,33,0.00,,---,0.00,VWS V14.01,2013-05-15 20:39:00,
2013-05-15 15:44:00,78.3,46.0,29.83,SSW,207,3.0,6.0,32,0.00,,---,0.00,VWS V14.01,2013-05-15 20:44:00,
2013-05-15 15:49:00,78.5,46.2,29.83,South,179,6.0,6.0,32,0.00,,---,0.00,VWS V14.01,2013-05-15 20:49:00,
2013-05-15 15:54:00,78.4,45.3,29.83,West,268,2.0,9.0,31,0.00,,---,0.00,VWS V14.01,2013-05-15 20:54:00,
2013-05-15 15:59:00,78.1,45.0,29.83,WSW,257,4.0,8.0,31,0.00,,---,0.00,VWS V14.01,2013-05-15 20:59:00,
2013-05-15 16:04:00,78.2,45.1,29.83,SSE,161,2.0,8.0,31,0.00,,---,0.00,VWS V14.01,2013-05-15 21:04:00,
2013-05-15 16:10:00,78.7,45.6,29.83,SW,236,2.0,9.0,31,0.00,,---,0.00,VWS V14.01,2013-05-15 21:10:00,
2013-05-15 16:15:00,79.1,45.9,29.82,WNW,291,3.0,6.0,31,0.00,,---,0.00,VWS V14.01,2013-05-15 21:15:00,
2013-05-15 16:20:00,79.3,46.1,29.82,WSW,254,2.0,8.0,31,0.00,,---,0.00,VWS V14.01,2013-05-15 21:20:00,
2013-05-15 16:25:00,79.4,45.3,29.82,WSW,257,0.0,8.0,30,0.00,,---,0.00,VWS V14.01,2013-05-15 21:25:00,
2013-05-15 16:30:00,79.4,45.3,29.82,NW,308,1.0,6.0,30,0.00,,---,0.00,VWS V14.01,2013-05-15 21:30:00,
2013-05-15 16:35:00,79.4,45.3,29.81,WNW,288,3.0,8.0,30,0.00,,---,0.00,VWS V14.01,2013-05-15 21:35:00,
2013-05-15 16:40:00,79.5,45.4,29.81,WNW,290,2.0,8.0,30,0.00,,---,0.00,VWS V14.01,2013-05-15 21:40:00,
2013-05-15 16:45:00,79.7,44.7,29.81,SSW,209,5.0,7.0,29,0.00,,---,0.00,VWS V14.01,2013-05-15 21:45:00,
2013-05-15 16:50:00,79.6,44.6,29.81,West,271,6.0,7.0,29,0.00,,---,0.00,VWS V14.01,2013-05-15 21:50:00,
2013-05-15 16:55:00,78.6,44.6,29.81,WSW,258,2.0,7.0,30,0.00,,---,0.00,VWS V14.01,2013-05-15 21:55:00,
2013-05-15 17:01:00,78.6,44.6,29.81,East,81,2.0,6.0,30,0.00,,---,0.00,VWS V14.01,2013-05-15 22:01:00,
2013-05-15 17:06:00,78.5,44.5,29.80,SW,220,2.0,6.0,30,0.00,,---,0.00,VWS V14.01,2013-05-15 22:06:00,
2013-05-15 17:11:00,78.6,45.5,29.81,West,280,3.0,8.0,31,0.00,,---,0.00,VWS V14.01,2013-05-15 22:11:00,
2013-05-15 17:16:00,79.2,46.8,29.81,SSW,200,2.0,7.0,32,0.00,,---,0.00,VWS V14.01,2013-05-15 22:16:00,
2013-05-15 17:21:00,79.9,46.6,29.81,WSW,242,2.0,7.0,31,0.00,,---,0.00,VWS V14.01,2013-05-15 22:21:00,
2013-05-15 17:26:00,80.8,46.5,29.80,WNW,301,2.0,7.0,30,0.00,,---,0.00,VWS V14.01,2013-05-15 22:26:00,
2013-05-15 17:31:00,80.7,45.5,29.80,SW,216,3.0,10.0,29,0.00,,---,0.00,VWS V14.01,2013-05-15 22:31:00,
2013-05-15 17:36:00,80.7,46.4,29.80,SE,128,7.0,10.0,30,0.00,,---,0.00,VWS V14.01,2013-05-15 22:36:00,
2013-05-15 17:41:00,80.3,46.9,29.80,West,268,2.0,10.0,31,0.00,,---,0.00,VWS V14.01,2013-05-15 22:41:00,
2013-05-15 17:46:00,80.4,47.0,29.80,West,274,1.0,5.0,31,0.00,,---,0.00,VWS V14.01,2013-05-15 22:46:00,
2013-05-15 17:52:00,81.0,47.5,29.80,North,5,2.0,5.0,31,0.00,,---,0.00,VWS V14.01,2013-05-15 22:52:00,
2013-05-15 17:57:00,80.5,48.0,29.80,NW,312,1.0,1.0,32,0.00,,---,0.00,VWS V14.01,2013-05-15 22:57:00,
2013-05-15 18:02:00,79.7,47.3,29.80,SW,229,3.0,7.0,32,0.00,,---,0.00,VWS V14.01,2013-05-15 23:02:00,
2013-05-15 18:07:00,79.5,47.9,29.80,West,281,2.0,8.0,33,0.00,,---,0.00,VWS V14.01,2013-05-15 23:07:00,
2013-05-15 18:12:00,79.6,48.0,29.80,SW,232,2.0,5.0,33,0.00,,---,0.00,VWS V14.01,2013-05-15 23:12:00,
2013-05-15 18:17:00,78.9,47.4,29.80,ESE,109,3.0,6.0,33,0.00,,---,0.00,VWS V14.01,2013-05-15 23:17:00,
2013-05-15 18:22:00,78.3,47.7,29.79,SSW,211,1.0,7.0,34,0.00,,---,0.00,VWS V14.01,2013-05-15 23:22:00,
2013-05-15 18:27:00,78.3,47.7,29.79,SW,235,3.0,4.0,34,0.00,,---,0.00,VWS V14.01,2013-05-15 23:27:00,
2013-05-15 18:32:00,78.1,48.2,29.79,North,10,2.0,8.0,35,0.00,,---,0.00,VWS V14.01,2013-05-15 23:32:00,
2013-05-15 18:37:00,77.7,47.9,29.79,WSW,240,3.0,8.0,35,0.00,,---,0.00,VWS V14.01,2013-05-15 23:37:00,
2013-05-15 18:42:00,77.4,47.6,29.80,West,267,1.0,2.0,35,0.00,,---,0.00,VWS V14.01,2013-05-15 23:42:00,
2013-05-15 18:48:00,77.3,47.5,29.80,WNW,287,3.0,7.0,35,0.00,,---,0.00,VWS V14.01,2013-05-15 23:48:00,
2013-05-15 18:53:00,77.0,48.0,29.80,NW,321,1.0,7.0,36,0.00,,---,0.00,VWS V14.01,2013-05-15 23:53:00,
2013-05-15 18:58:00,76.7,47.8,29.79,West,280,1.0,3.0,36,0.00,,---,0.00,VWS V14.01,2013-05-15 23:58:00,
2013-05-15 19:03:00,76.6,48.4,29.79,SE,126,2.0,3.0,37,0.00,,---,0.00,VWS V14.01,2013-05-16 00:03:00,
2013-05-15 19:08:00,76.4,48.2,29.80,West,278,1.0,4.0,37,0.00,,---,0.00,VWS V14.01,2013-05-16 00:08:00,
2013-05-15 19:13:00,76.4,48.9,29.79,West,265,2.0,2.0,38,0.00,,---,0.00,VWS V14.01,2013-05-16 00:13:00,
2013-05-15 19:18:00,76.9,48.7,29.79,WSW,254,3.0,5.0,37,0.00,,---,0.00,VWS V14.01,2013-05-16 00:18:00,
2013-05-15 19:23:00,77.3,49.0,29.79,WSW,254,2.0,8.0,37,0.00,,---,0.00,VWS V14.01,2013-05-16 00:23:00,
2013-05-15 19:28:00,77.5,49.2,29.79,West,280,0.0,3.0,37,0.00,,---,0.00,VWS V14.01,2013-05-16 00:28:00,
2013-05-15 19:33:00,77.6,49.3,29.79,SSW,204,8.0,10.0,37,0.00,,---,0.00,VWS V14.01,2013-05-16 00:33:00,
2013-05-15 19:38:00,77.5,49.2,29.79,West,261,1.0,10.0,37,0.00,,---,0.00,VWS V14.01,2013-05-16 00:38:00,
2013-05-15 19:43:00,77.5,49.2,29.79,SSW,201,2.0,3.0,37,0.00,,---,0.00,VWS V14.01,2013-05-16 00:43:00,
2013-05-15 19:48:00,77.4,49.8,29.79,SW,236,0.0,3.0,38,0.00,,---,0.00,VWS V14.01,2013-05-16 00:48:00,
2013-05-15 19:53:00,77.0,49.5,29.79,SSE,165,5.0,6.0,38,0.00,,---,0.00,VWS V14.01,2013-05-16 00:53:00,
2013-05-15 19:58:00,76.6,49.8,29.79,West,275,1.0,2.0,39,0.00,,---,0.00,VWS V14.01,2013-05-16 00:58:00,
2013-05-15 20:03:00,76.1,50.0,29.79,West,263,1.0,4.0,40,0.00,,---,0.00,VWS V14.01,2013-05-16 01:03:00,
2013-05-15 20:08:00,75.5,49.5,29.79,SW,225,1.0,6.0,40,0.00,,---,0.00,VWS V14.01,2013-05-16 01:08:00,
2013-05-15 20:13:00,74.9,49.6,29.79,SW,230,1.0,3.0,41,0.00,,---,0.00,VWS V14.01,2013-05-16 01:13:00,
2013-05-15 20:18:00,74.4,49.8,29.79,WSW,238,2.0,5.0,42,0.00,,---,0.00,VWS V14.01,2013-05-16 01:18:00,
2013-05-15 20:24:00,73.8,49.3,29.79,SW,229,1.0,5.0,42,0.00,,---,0.00,VWS V14.01,2013-05-16 01:24:00,
2013-05-15 20:29:00,73.3,49.5,29.79,South,188,4.0,6.0,43,0.00,,---,0.00,VWS V14.01,2013-05-16 01:29:00,
2013-05-15 20:34:00,72.9,49.1,29.80,WSW,242,1.0,6.0,43,0.00,,---,0.00,VWS V14.01,2013-05-16 01:34:00,
2013-05-15 20:39:00,72.5,49.4,29.80,WSW,237,1.0,6.0,44,0.00,,---,0.00,VWS V14.01,2013-05-16 01:39:00,
2013-05-15 20:44:00,72.2,49.1,29.79,WSW,253,1.0,2.0,44,0.00,,---,0.00,VWS V14.01,2013-05-16 01:44:00,
2013-05-15 20:49:00,72.0,48.9,29.79,NW,313,2.0,3.0,44,0.00,,---,0.00,VWS V14.01,2013-05-16 01:49:00,
2013-05-15 20:54:00,71.8,49.3,29.80,WSW,251,0.0,5.0,45,0.00,,---,0.00,VWS V14.01,2013-05-16 01:54:00,
2013-05-15 20:59:00,71.5,49.1,29.80,West,264,2.0,3.0,45,0.00,,---,0.00,VWS V14.01,2013-05-16 01:59:00,
2013-05-15 21:04:00,71.3,48.9,29.80,WSW,258,1.0,5.0,45,0.00,,---,0.00,VWS V14.01,2013-05-16 02:04:00,
2013-05-15 21:09:00,71.1,49.3,29.80,SSW,204,4.0,5.0,46,0.00,,---,0.00,VWS V14.01,2013-05-16 02:09:00,
2013-05-15 21:14:00,70.9,49.1,29.80,SSW,197,2.0,5.0,46,0.00,,---,0.00,VWS V14.01,2013-05-16 02:14:00,
2013-05-15 21:19:00,70.7,48.9,29.80,WSW,257,1.0,5.0,46,0.00,,---,0.00,VWS V14.01,2013-05-16 02:19:00,
2013-05-15 21:25:00,70.3,49.1,29.80,WSW,256,2.0,5.0,47,0.00,,---,0.00,VWS V14.01,2013-05-16 02:25:00,
2013-05-15 21:29:00,70.0,49.4,29.80,SW,229,0.0,3.0,48,0.00,,---,0.00,VWS V14.01,2013-05-16 02:29:00,
2013-05-15 21:35:00,69.7,49.2,29.80,WSW,249,1.0,4.0,48,0.00,,---,0.00,VWS V14.01,2013-05-16 02:35:00,
2013-05-15 21:40:00,69.4,49.4,29.80,West,275,2.0,4.0,49,0.00,,---,0.00,VWS V14.01,2013-05-16 02:40:00,
2013-05-15 21:45:00,69.2,49.2,29.81,WSW,254,0.0,4.0,49,0.00,,---,0.00,VWS V14.01,2013-05-16 02:45:00,
2013-05-15 21:50:00,69.0,49.6,29.81,WSW,252,0.0,5.0,50,0.00,,---,0.00,VWS V14.01,2013-05-16 02:50:00,
2013-05-15 21:55:00,68.7,49.3,29.81,SW,235,1.0,5.0,50,0.00,,---,0.00,VWS V14.01,2013-05-16 02:55:00,
2013-05-15 22:00:00,68.4,49.1,29.81,SW,228,2.0,3.0,50,0.00,,---,0.00,VWS V14.01,2013-05-16 03:00:00,
2013-05-15 22:05:00,68.3,49.0,29.81,West,273,1.0,3.0,50,0.00,,---,0.00,VWS V14.01,2013-05-16 03:05:00,
2013-05-15 22:10:00,68.2,48.9,29.81,WSW,254,1.0,4.0,50,0.00,,---,0.00,VWS V14.01,2013-05-16 03:10:00,
2013-05-15 22:15:00,68.0,48.7,29.81,WSW,248,0.0,3.0,50,0.00,,---,0.00,VWS V14.01,2013-05-16 03:15:00,
2013-05-15 22:20:00,67.7,48.9,29.81,WSW,243,2.0,3.0,51,0.00,,---,0.00,VWS V14.01,2013-05-16 03:20:00,
2013-05-15 22:25:00,67.5,48.8,29.81,SSW,209,0.0,3.0,51,0.00,,---,0.00,VWS V14.01,2013-05-16 03:25:00,
2013-05-15 22:30:00,67.3,48.6,29.81,WNW,283,1.0,3.0,51,0.00,,---,0.00,VWS V14.01,2013-05-16 03:30:00,
2013-05-15 22:35:00,67.2,48.5,29.81,SSW,213,1.0,5.0,51,0.00,,---,0.00,VWS V14.01,2013-05-16 03:35:00,
2013-05-15 22:40:00,67.1,48.4,29.81,West,271,0.0,5.0,51,0.00,,---,0.00,VWS V14.01,2013-05-16 03:40:00,
2013-05-15 22:45:00,67.0,48.3,29.81,SW,223,2.0,5.0,51,0.00,,---,0.00,VWS V14.01,2013-05-16 03:45:00,
2013-05-15 22:50:00,66.9,48.2,29.81,WSW,256,2.0,5.0,51,0.00,,---,0.00,VWS V14.01,2013-05-16 03:50:00,
2013-05-15 22:55:00,66.9,47.7,29.81,SSW,209,1.0,5.0,50,0.00,,---,0.00,VWS V14.01,2013-05-16 03:55:00,
2013-05-15 23:00:00,66.8,47.6,29.81,WSW,245,1.0,4.0,50,0.00,,---,0.00,VWS V14.01,2013-05-16 04:00:00,
2013-05-15 23:01:00,66.8,47.6,29.81,WSW,245,1.0,4.0,50,0.00,,---,0.00,VWS V14.01,2013-05-16 04:01:00,
2013-05-15 23:06:00,66.6,47.4,29.81,SW,231,0.0,4.0,50,0.00,,---,0.00,VWS V14.01,2013-05-16 04:06:00,
2013-05-15 23:11:00,66.4,47.2,29.81,WNW,294,1.0,4.0,50,0.00,,---,0.00,VWS V14.01,2013-05-16 04:11:00,
2013-05-15 23:16:00,66.3,47.1,29.81,WSW,252,1.0,2.0,50,0.00,,---,0.00,VWS V14.01,2013-05-16 04:16:00,
2013-05-15 23:21:00,66.2,47.0,29.81,SW,226,1.0,3.0,50,0.00,,---,0.00,VWS V14.01,2013-05-16 04:21:00,
2013-05-15 23:26:00,66.2,47.0,29.81,WSW,244,1.0,3.0,50,0.00,,---,0.00,VWS V14.01,2013-05-16 04:26:00,
2013-05-15 23:31:00,66.1,46.9,29.81,West,268,0.0,3.0,50,0.00,,---,0.00,VWS V14.01,2013-05-16 04:31:00,
2013-05-15 23:36:00,66.0,46.8,29.82,West,263,0.0,4.0,50,0.00,,---,0.00,VWS V14.01,2013-05-16 04:36:00,
2013-05-15 23:41:00,65.9,46.8,29.82,WNW,283,0.0,4.0,50,0.00,,---,0.00,VWS V14.01,2013-05-16 04:41:00,
2013-05-15 23:46:00,65.8,46.7,29.82,WSW,251,0.0,3.0,50,0.00,,---,0.00,VWS V14.01,2013-05-16 04:46:00,
2013-05-15 23:51:00,65.4,46.3,29.82,West,266,0.0,3.0,50,0.00,,---,0.00,VWS V14.01,2013-05-16 04:51:00,
2013-05-15 23:56:00,65.2,46.6,29.82,West,267,0.0,3.0,51,0.00,,---,0.00,VWS V14.01,2013-05-16 04:56:00,